Location: Newark
(7.0858°N, 171.3717°E)
Time: 18:54:41
(UTC+00:00)

ISS - Visible Passes

Search period start: 06 December 2021 00:00
Search period end: 16 December 2021 00:00
Orbit: 417 x 422 km, 51.6° (Epoch: 06 December)

Date Brightness Start Highest point End Pass type
(mag) Time Alt. Az. Time Alt. Az. Time Alt. Az.
10 Dec -2.4 07:59:21 10° NW 08:02:08 38° WSW 08:02:08 38° WSW visible
11 Dec -3.9 07:11:49 10° NNW 07:15:10 78° NE 07:18:32 10° SE visible
13 Dec -0.5 07:14:34 10° W 07:16:57 18° SW 07:19:19 10° S visible
14 Dec -1.2 18:06:06 10° S 18:08:59 26° SE 18:11:51 10° ENE visible
15 Dec -0.3 17:20:06 10° SSE 17:21:35 12° SE 17:23:03 10° E visible
